Miscellaneous Local Product
Issued by NWS North Platte, NE

Home | Current Version | Previous Version | Text Only | Print | Product List | Glossary On
Versions: 1 2 3 4 5 6 7 8 9 10 11 12 13 14 15 16 17 18 19 20 21 22 23 24 25 26 27 28 29 30 31 32 33 34 35 36 37 38 39 40 41 42 43 44 45 46 47 48 49 50
869
AXUS43 KLBF 121210
MISLBF


WESTERN AND NORTH CENTRAL NEBRASKA HOURLY WEATHER ROUNDUP
NATIONAL WEATHER SERVICE NORTH PLATTE NE
600 AM CST FRI FEB 12 2016

NOTE: "FAIR" INDICATES FEW OR NO CLOUDS BELOW 12,000 FEET WITH NO
SIGNIFICANT WEATHER AND/OR OBSTRUCTIONS TO VISIBILITY.

NOTE: STATIONS NOT REPORTING VARIABLES SUCH AS SKY/WEATHER OR
PRESSURE ARE PROVIDED BY THE NEBRASKA DEPARTMENT OF
ROADS...RAWS...AND APRS NETWORKS...AND ARE NOT UNDER
NATIONAL WEATHER SERVICE QUALITY CONTROL.

...OBSERVATIONS IN AND NEAR THE EASTERN PANHANDLE OF NEBRASKA...

CITY           SKY/WX    TMP DP  RH WIND       PRES   REMARKS
PINE RIDGE     CLOUDY    32  28  85 NE8       30.31R WCI  25
CHADRON        CLOUDY    26  24  92 CALM      30.31R
ALLIANCE       CLEAR     25  22  88 CALM      30.25R
SIDNEY         CLOUDY    28  25  88 SW5       30.27S WCI  23
CRESCENT LAKE    N/A     27  24  88 W5          N/A  WCI  22
BIG SPRINGS      N/A     30  28  92 W6          N/A  WCI  24
$$

...OBSERVATIONS IN NORTH CENTRAL NEBRASKA...

CITY           SKY/WX    TMP DP  RH WIND       PRES   REMARKS
VALENTINE      CLOUDY    29  26  89 N12       30.32R WCI  19
THEDFORD       CLOUDY    33  31  89 NW12      30.31R WCI  25
AINSWORTH      CLOUDY    29  28  96 N10       30.31R FOG     WCI  19
O`NEILL        CLOUDY    27  24  91 N6        30.33R WCI  20
ORD            PTCLDY    22  20  92 NW6       30.32R WCI  14
BROKEN BOW     CLOUDY    31  27  85 N10       30.30R WCI  22
VALENTINE NWR    N/A     29  27  93 N9G16       N/A  WCI  21
BUTTE            N/A     19  18  94 N9          N/A  WCI   8
HALSEY           N/A     29  28  97 CALM        N/A
CHAMBERS         N/A     26  23  87 N5          N/A  WCI  20
EWING            N/A     24  22  91 N3          N/A
$$

...OBSERVATIONS IN SOUTHWEST NEBRASKA AND FAR NORTHEAST COLORADO...

CITY           SKY/WX    TMP DP  RH WIND       PRES   REMARKS
HOLYOKE        FAIR      32  28  86 W6        30.29R WCI  26
IMPERIAL       CLEAR     29  24  82 W3        30.29R
OGALLALA       CLOUDY    28  25  89 CALM      30.29R
NORTH PLATTE   CLOUDY    25  22  88 VRB5      30.30R WCI  19
MCCOOK         CLEAR     26  24  92 NW6       30.31R WCI  19
LEXINGTON      CLOUDY    32  28  86 NW8       30.31R WCI  25
PAXTON           N/A     26  24  90 CALM        N/A
STAPLETON        N/A     32  29  90 CALM        N/A
GOTHENBURG       N/A     31  27  85 N5          N/A  WCI  26
CALLAWAY         N/A     30  28  94 N7          N/A  WCI  23
$$

...OBSERVATIONS IN CENTRAL LINCOLN COUNTY AREA...

CITY           SKY/WX    TMP DP  RH WIND       PRES   REMARKS
N.P. AIRPORT   CLOUDY    25  22  88 VRB5      30.30R WCI  19
N.P. DOWNTOWN    N/A     29  27  93 CALM        N/A
N.P. SOUTHEAST   N/A     28  26  92 CALM        N/A
N.P. HILLCREST   N/A     29  27  93 N8          N/A  WCI  21
$$

...SOME OBSERVATIONS FROM AROUND THE REGION...

CITY           SKY/WX    TMP DP  RH WIND       PRES   REMARKS
DENVER         CLOUDY    33  24  69 SW9       30.25F WCI  25
LARAMIE        CLOUDY    36  23  59 SW9       30.28S WCI  29
CHEYENNE       CLOUDY    32  24  72 CALM      30.27R
SCOTTSBLUFF    CLOUDY    30  26  85 N7        30.27S WCI  23
RAPID CITY     CLOUDY    30  27  88 NE12      30.32R WCI  20
BISMARCK       CLOUDY    13   6  74 N14       30.48R WCI  -2
PIERRE         CLOUDY    21  16  81 N9        30.41R WCI  11
WINNER         CLOUDY    24  21  88 N10       30.38R FOG     WCI  14
SIOUX FALLS    CLOUDY    15  10  80 N14       30.36R WCI   0
OMAHA          CLOUDY    20  17  88 N15       30.35R WCI   6
GRAND ISLAND   CLOUDY    28  23  81 N14       30.33R WCI  17
KANSAS CITY    PTCLDY    26  20  77 NW8       30.27R WCI  18
WICHITA        PTCLDY    36  28  73 N14       30.28R WCI  27
OKLAHOMA CITY  CLOUDY    35  31  85 N8        30.23R WCI  29
LIBERAL        CLEAR     34  23  64 NW10      30.29R WCI  26
HAYS           CLEAR     30  19  64 N5        30.32R WCI  25
GOODLAND       CLOUDY    29  24  82 W8        30.29S WCI  21
$$




USA.gov is the U.S. government's official web portal to all federal, state and local government web resources and services.